DW7601 San Vito IT current weather conditions

sailwx.info

Wind from 068 at 2 knots gusting 4

Air temperature 14.4° C
Dewpoint 6.0° C

Last reported at 2016-May-25 03:51 UTC.
Time now 2016-May-25 05:17 UTC

Location: N 39°27' E 009°32'.
View on Google Maps.

See reports from other nearby stations

  
Tides and Currents Weather Stations Pressure Air Temp Water Temp Dewpoint Dewpoint Depression Visibility Wind Speed Wind Dir Waves Ship Positions
date/time (UTC)wind fromknots sea level pressurealtimeterstation pressurevisibilityair tempwater tempwave heightnotes
2016-May-25 03:51 068 2 gusting 4 14.4
2016-May-25 03:41 068 1 gusting 4 14.4
2016-May-25 03:31 088 1 gusting 2 14.4
2016-May-25 03:01 030 1 gusting 4 14.4
2016-May-25 02:51 068 1 gusting 2 15.0
2016-May-25 02:41 025 2 gusting 5 15.0
2016-May-25 02:31 066 1 gusting 2 15.0
2016-May-25 02:21 068 1 gusting 4 15.0
2016-May-25 02:11 002 1 gusting 4 15.0
2016-May-25 02:01 031 2 gusting 5 15.6
2016-May-25 01:51 045 2 gusting 5 15.6
2016-May-25 01:41 088 2 gusting 4 15.6
2016-May-25 01:31 024 2 gusting 5 15.6
2016-May-25 01:21 025 1 gusting 2 16.1
2016-May-25 01:11 068 1 gusting 4 16.1
2016-May-25 01:01 059 1 gusting 4 16.1
2016-May-25 00:41 047 2 gusting 7 16.1
2016-May-25 00:31 066 2 gusting 7 16.7
2016-May-25 00:21 069 4 gusting 7 16.7
2016-May-25 00:11 343 4 gusting 6 16.7
2016-May-25 00:01 063 5 gusting 6 16.7
2016-May-24 23:51 068 4 gusting 8 16.7
2016-May-24 23:41 068 5 gusting 7 16.7
2016-May-24 23:31 047 4 gusting 6 16.7
2016-May-24 23:21 020 4 gusting 6 16.7
2016-May-24 23:11 068 4 gusting 6 16.7
2016-May-24 23:01 045 4 gusting 6 17.2
2016-May-24 22:51 087 4 gusting 6 17.2
2016-May-24 22:31 066 1 gusting 4 17.2
2016-May-24 22:21 068 1 gusting 4 17.2
2016-May-24 22:11 066 2 gusting 4 17.2
2016-May-24 22:01 068 1 gusting 4 17.8
2016-May-24 21:51 027 1 gusting 4 17.8
2016-May-24 21:31 043 1 gusting 5 18.3
2016-May-24 21:21 336 0 gusting 1 18.3
2016-May-24 21:11 338 1 gusting 4 18.3
2016-May-24 21:01 054 1 gusting 4 18.3
2016-May-24 20:41 338 1 gusting 5 18.9
2016-May-24 20:31 040 1 gusting 5 18.9
2016-May-24 20:11 341 2 gusting 5 18.9
2016-May-24 20:01 014 2 gusting 5 19.4
2016-May-24 19:51 359 1 gusting 4 19.4
2016-May-24 19:41 044 2 gusting 4 19.4
2016-May-24 19:31 022 1 gusting 4 19.4
2016-May-24 19:21 088 2 gusting 5 20.0
2016-May-24 19:11 317 2 gusting 6 20.0
2016-May-24 19:01 333 1 gusting 4 20.6
2016-May-24 18:51 019 2 gusting 6 20.6
2016-May-24 18:41 065 1 gusting 4 21.1
2016-May-24 18:31 043 0 gusting 1 21.1
2016-May-24 18:21 338 21.7
2016-May-24 18:11 262 1 gusting 2 21.7
2016-May-24 18:01 014 2 gusting 5 22.2
2016-May-24 17:51 048 1 gusting 4 22.8
2016-May-24 17:41 017 1 gusting 5 23.3
2016-May-24 17:21 294 2 gusting 6 24.4
2016-May-24 17:11 024 1 gusting 4 24.4
2016-May-24 17:01 059 1 gusting 5 25.0
2016-May-24 16:51 320 4 gusting 7 25.0
2016-May-24 16:41 317 2 gusting 8 25.6
2016-May-24 16:31 338 2 gusting 6 25.6
2016-May-24 16:01 320 4 gusting 7 26.1
2016-May-24 15:51 295 4 gusting 7 26.1
2016-May-24 15:41 316 4 gusting 10 26.7
2016-May-24 15:31 336 4 gusting 10 26.7
2016-May-24 15:21 272 4 gusting 7 26.7
2016-May-24 15:11 020 4 gusting 7 26.7
2016-May-24 15:01 355 4 gusting 8 26.7
2016-May-24 14:51 274 4 gusting 4 27.2
2016-May-24 14:41 338 5 gusting 11 26.7
2016-May-24 14:31 043 5 gusting 7 27.2
2016-May-24 14:21 063 5 gusting 6 27.2
2016-May-24 14:11 317 4 gusting 7 26.7
2016-May-24 13:41 045 4 gusting 6 27.2
2016-May-24 13:11 107 4 gusting 6 26.7
2016-May-24 13:01 284 5 gusting 10 26.1
2016-May-24 12:51 045 5 gusting 8 26.1
2016-May-24 12:31 084 6 gusting 12 26.7
2016-May-24 12:21 342 5 gusting 8 26.7
2016-May-24 12:11 066 5 gusting 12 26.7
2016-May-24 12:01 351 2 gusting 7 26.7
2016-May-24 11:51 107 4 gusting 6 26.7
2016-May-24 11:41 022 5 gusting 6 26.1
2016-May-24 11:31 270 6 gusting 12 26.1
2016-May-24 11:11 040 5 gusting 7 25.6
2016-May-24 11:01 315 5 gusting 12 25.6
2016-May-24 10:41 207 6 gusting 12 25.0
2016-May-24 10:31 019 4 gusting 6 25.0
2016-May-24 10:21 018 4 gusting 10 25.0
2016-May-24 10:11 315 5 gusting 8 24.4
2016-May-24 09:51 295 5 gusting 10 23.9
2016-May-24 09:31 311 5 gusting 12 23.3
2016-May-24 09:21 042 4 gusting 7 23.3
2016-May-24 09:01 346 4 gusting 11 21.1
2016-May-24 08:51 341 2 gusting 6 22.2
2016-May-24 08:31 064 4 gusting 10 21.1
2016-May-24 08:21 341 4 gusting 7 20.6
2016-May-24 08:11 108 1 gusting 7 20.6
2016-May-24 07:51 019 1 gusting 4 21.1
2016-May-24 07:31 007 3 gusting 6 19.4
2016-May-24 07:21 066 5 gusting 7 19.4
2016-May-24 07:11 336 4 gusting 7 20.6
2016-May-24 07:01 126 2 gusting 4 20.0
2016-May-24 06:51 357 2 gusting 5 19.4
2016-May-24 06:41 064 2 gusting 7 18.9
2016-May-24 06:31 317 2 gusting 7 18.3
2016-May-24 06:21 065 2 gusting 6 18.3
2016-May-24 06:11 344 2 gusting 6 17.8
2016-May-24 06:01 042 4 gusting 6 17.2
2016-May-24 05:51 018 2 gusting 6 17.2
2016-May-24 05:41 319 2 gusting 6 16.7
2016-May-24 05:31 039 2 gusting 5 16.7
2016-May-24 05:11 086 4 gusting 6 16.1
2016-May-24 05:01 028 2 gusting 8 15.6
2016-May-24 04:51 024 1 gusting 4 15.6
2016-May-24 04:41 339 4 gusting 6 15.6
2016-May-24 04:31 024 2 gusting 6 15.6
2016-May-24 04:21 221 2 gusting 6 15.6
2016-May-24 04:11 272 2 gusting 5 15.6
2016-May-24 04:01 343 1 gusting 6 15.6
2016-May-24 03:51 358 2 gusting 6 15.6
2016-May-24 03:41 041 2 gusting 6 15.6
2016-May-24 03:31 043 2 gusting 8 15.6
2016-May-24 03:21 225 2 gusting 5 15.6
2016-May-24 03:11 045 4 gusting 7 15.6
2016-May-24 03:01 330 4 gusting 13 15.6
2016-May-24 02:41 358 2 gusting 6 15.6
2016-May-24 02:21 295 2 gusting 5 15.6
2016-May-24 02:11 022 2 gusting 6 15.0
2016-May-24 02:01 344 2 gusting 4 15.0
2016-May-24 01:51 045 2 gusting 6 15.6
2016-May-24 01:41 341 2 gusting 6 15.6
2016-May-24 01:21 045 1 gusting 2 15.6
2016-May-24 01:01 102 2 gusting 5 15.6
2016-May-24 00:51 088 2 gusting 6 15.6
2016-May-24 00:41 045 2 gusting 6 15.6
2016-May-24 00:31 064 2 gusting 10 15.6
2016-May-24 00:11 064 2 gusting 4 15.6
2016-May-24 00:01 022 2 gusting 6 15.6
2016-May-23 23:51 064 4 gusting 6 16.1
2016-May-23 23:11 343 4 gusting 6 16.1
2016-May-23 23:01 288 5 gusting 7 16.1
2016-May-23 22:51 022 4 gusting 7 16.1
2016-May-23 22:41 336 4 gusting 5 16.1
2016-May-23 22:31 320 2 gusting 10 16.1
2016-May-23 22:11 320 2 gusting 7 16.1
2016-May-23 22:01 349 2 gusting 4 16.1
2016-May-23 21:51 341 4 gusting 6 16.1
2016-May-23 21:41 026 4 gusting 13 16.1
2016-May-23 21:31 063 4 gusting 13 16.1
2016-May-23 21:21 042 4 gusting 6 16.7
2016-May-23 21:11 022 4 gusting 7 16.7
2016-May-23 21:01 150 5 gusting 7 16.7
2016-May-23 20:51 339 5 gusting 11 16.7
2016-May-23 20:41 16.7
2016-May-23 20:31 022 5 gusting 10 16.7
2016-May-23 20:21 045 5 gusting 10 16.7
2016-May-23 20:01 052 4 gusting 7 17.2
2016-May-23 19:51 025 4 gusting 6 17.2
2016-May-23 19:31 008 4 gusting 11 17.2
2016-May-23 19:21 108 4 gusting 13 17.8
2016-May-23 19:01 338 4 gusting 12 18.3
2016-May-23 18:51 026 5 gusting 8 18.3
2016-May-23 18:41 336 2 gusting 6 18.9
2016-May-23 18:21 063 4 gusting 8 18.9
2016-May-23 18:11 063 5 gusting 12 19.4
2016-May-23 18:01 019 5 gusting 12 19.4
2016-May-23 17:51 064 5 gusting 7 20.0
2016-May-23 17:41 027 5 gusting 12 20.0
2016-May-23 17:31 040 6 gusting 11 20.0
2016-May-23 17:11 343 5 gusting 11 20.6
2016-May-23 16:51 066 7 gusting 14 21.1
2016-May-23 16:41 024 6 gusting 12 21.7
2016-May-23 16:31 253 6 gusting 12 22.8
2016-May-23 16:21 064 5 gusting 13 23.3
2016-May-23 16:11 341 6 gusting 13 23.3
2016-May-23 15:51 043 7 gusting 13 24.4
2016-May-23 15:31 047 6 gusting 13 25.0
2016-May-23 15:21 045 6 gusting 13 25.0
2016-May-23 15:01 042 5 gusting 7 25.0
2016-May-23 14:51 043 5 gusting 7 24.4
2016-May-23 14:41 338 5 gusting 10 23.3
2016-May-23 14:31 064 5 gusting 10 23.9
2016-May-23 14:21 336 6 gusting 12 23.9
2016-May-23 14:11 317 5 gusting 12 23.9
2016-May-23 13:51 045 6 gusting 12 25.0
2016-May-23 13:41 064 5 gusting 7 25.0
2016-May-23 13:31 354 6 gusting 8 25.0
2016-May-23 13:21 065 7 gusting 15 25.6
2016-May-23 13:11 041 5 gusting 10 26.1
2016-May-23 13:01 022 6 gusting 13 26.1
2016-May-23 12:41 002 6 gusting 14 26.7
2016-May-23 12:31 022 6 gusting 13 26.1
2016-May-23 12:21 020 6 gusting 13 26.7
2016-May-23 12:11 342 7 gusting 11 26.1
2016-May-23 12:01 025 7 gusting 13 26.1
2016-May-23 11:51 315 6 gusting 13 26.1
2016-May-23 11:41 045 6 gusting 17 26.1
2016-May-23 11:31 275 6 gusting 12 26.1
2016-May-23 11:21 017 6 gusting 11 26.1
2016-May-23 11:11 358 7 gusting 13 26.1
2016-May-23 11:01 033 7 gusting 13 26.1
2016-May-23 10:51 319 6 gusting 12 26.1
2016-May-23 10:41 317 7 gusting 14 26.1
2016-May-23 10:31 342 6 gusting 13 26.7
2016-May-23 10:21 064 7 gusting 15 26.1
2016-May-23 10:11 004 6 gusting 15 26.7
2016-May-23 10:01 355 6 gusting 8 26.7
2016-May-23 09:51 312 6 gusting 10 26.7
2016-May-23 09:41 335 6 gusting 10 26.7
2016-May-23 09:31 340 4 gusting 10 26.7
2016-May-23 09:21 025 5 gusting 8 26.1
2016-May-23 09:11 109 5 gusting 11 26.1
2016-May-23 09:01 045 4 gusting 7 25.6
2016-May-23 08:51 088 5 gusting 7 25.6
2016-May-23 08:41 338 5 gusting 7 25.0
2016-May-23 08:31 022 5 gusting 7 25.0
2016-May-23 08:21 045 5 gusting 7 24.4
2016-May-23 08:11 066 5 gusting 7 23.9
2016-May-23 08:01 065 5 gusting 11 23.9
2016-May-23 07:51 023 4 gusting 10 23.9
2016-May-23 07:41 295 4 gusting 10 23.3
2016-May-23 07:31 005 5 gusting 8 23.3
2016-May-23 07:21 047 5 gusting 10 22.8
2016-May-23 07:11 022 5 gusting 10 22.2
2016-May-23 07:01 077 5 gusting 7 22.2
2016-May-23 06:51 319 6 gusting 10 21.7
2016-May-23 06:41 359 6 gusting 17 21.1
2016-May-23 06:31 024 5 gusting 12 21.1
2016-May-23 06:21 041 5 gusting 8 20.6
2016-May-23 06:11 319 4 gusting 13 20.6
2016-May-23 06:01 253 2 gusting 7 20.0
2016-May-23 05:51 022 1 gusting 5 19.4
2016-May-23 05:41 024 4 gusting 7 19.4
2016-May-23 05:31 319 2 gusting 6 19.4
2016-May-23 05:21 107 2 gusting 6 18.9
2016-May-23 05:11 343 4 gusting 7 18.3
2016-May-23 05:01 045 4 gusting 8 18.3